Probability
0 0 0 0 0 0 1 1 1 0 1 2 1 0 0 0 0 0 0 0 0 0 0 0 0 0 0 0 0 0 0 0 0 0 0 0 0 0 0 0 0 0 0
0 0 0 0 0 0 0 1 1 0 0 1 0 0 0 0 0 0 0 0 0 0 0 0 0 0 0 0 0 0 0 0 0 0 0 0 0 0 0 0 0 0 0
0 0 0 0 0 0 0 0 0 0 0 0 0 0 0 0 0 0 0 0 0 0 0 0 0 0 0 0 0 0 0 0 0 0 0 0 0 0 0 0 0 0 0
0 0 0 0 0 0 0 0 0 0 0 0 0 0 0 0 0 0 0 0 0 0 0 0 0 0 0 0 0 0 0 0 0 0 0 0 0 0 0 0 0 0 0
0 0 0 0 0 0 0 0 0 0 0 0 0 0 0 0 0 0 0 0 0 0 0 0 0 0 0 0 0 0 0 0 0 0 0 0 0 0 0 0 0 0 0
0 0 0 0 0 0 0 0 0 0 0 0 0 0 0 0 0 0 0 0 0 0 0 0 0 0 0 0 0 0 0 0 0 0 0 0 0 0 0 0 0 0 0
0 0 0 0 0 0 0 0 0 0 0 0 0 1 1 0 0 0 0 0 0 0 0 0 0 0 0 0 0 0 0 0 0 0 0 0 0 0 0 0 0 0 0
0 0 0 0 0 0 0 0 0 0 0 0 0 1 1 1 1 0 0 0 0 0 0 0 0 0 0 0 0 0 0 0 0 0 0 0 0 0 0 0 0 0 0
0 0 0 0 0 0 0 0 0 0 0 0 0 1 1 2 2 1 0 0 0 0 0 0 0 0 0 0 0 0 0 0 0 0 0 0 0 0 0 0 0 0 0
0 0 0 1 1 0 0 0 0 0 0 0 0 0 0 1 2 2 1 0 0 0 0 0 0 0 0 0 0 0 0 0 0 0 0 0 0 0 0 0 0 0 0
0 0 0 1 1 0 0 0 0 0 0 0 0 0 0 1 2 3 2 1 0 0 0 0 0 0 0 0 0 0 0 0 0 0 0 0 0 0 0 0 0 0 0
0 0 0 1 1 0 0 0 0 0 0 0 0 0 0 1 2 3 3 1 1 0 0 0 0 0 0 0 0 0 0 0 0 0 0 0 0 0 0 0 0 0 0
0 0 0 0 0 0 1 1 1 0 0 0 0 0 0 1 2 3 3 3 2 1 0 0 0 0 0 0 0 0 0 0 0 0 0 0 0 0 0 0 0 0 0
0 0 0 0 0 0 1 2 1 0 0 0 0 0 0 0 1 3 3 3 3 1 0 0 0 0 0 0 0 0 0 0 0 0 0 0 0 0 0 0 0 0 0
0 1 1 1 0 0 1 1 1 0 0 0 0 0 0 0 1 3 3 3 2 2 1 0 0 0 0 0 0 0 0 0 0 0 0 0 0 0 0 0 0 0 0
1 3 4 3 2 0 0 0 0 0 0 0 0 0 0 0 2 3 3 1 1 2 1 0 0 0 0 0 0 0 0 0 0 0 0 0 0 0 0 0 0 0 0
3 5 7 7 5 2 1 0 0 0 0 0 0 0 0 0 1 2 2 1 1 1 1 0 0 0 0 0 0 0 0 0 0 0 0 0 0 0 0 0 0 0 0
7 7 8 8 6 4 2 1 0 0 0 0 0 0 0 0 0 1 1 0 0 0 0 0 0 0 0 0 0 0 0 0 0 0 0 0 0 0 0 0 0 0 0
9 10 9 8 5 3 2 1 0 0 0 0 0 0 0 0 0 0 0 0 0 0 0 0 0 0 0 0 0 0 0 0 0 0 0 0 0 0 0 0 0 0 0
9 9 9 7 4 2 1 0 0 0 0 0 0 0 0 0 0 0 0 0 0 0 0 0 0 0 0 0 0 0 0 0 0 0 0 0 0 0 0 0 0 0 0
11 10 9 7 4 1 0 0 0 0 0 0 0 0 0 0 0 0 0 0 0 0 0 0 0 0 0 0 0 0 0 0 0 0 0 0 0 0 0 0 0 0 0
14 13 12 8 5 2 0 0 0 0 0 0 0 0 0 0 0 0 0 0 0 0 0 0 0 0 0 0 0 0 0 0 0 0 0 0 0 0 0 0 0 0 0
16 14 12 9 6 3 1 0 1 1 1 0 0 0 0 0 0 1 1 0 0 0 0 0 0 0 0 0 0 0 0 0 0 0 0 0 0 0 0 0 0 0 0
17 13 9 8 6 3 1 0 1 2 2 1 0 0 0 0 0 1 1 1 1 1 0 0 0 0 0 0 0 0 0 0 0 0 0 0 0 0 0 0 0 0 0
16 12 7 7 6 3 1 0 1 2 2 1 0 0 0 0 0 1 1 2 2 2 1 1 0 0 0 0 0 0 0 0 0 0 0 0 0 0 0 0 0 0 0
14 11 7 7 7 5 2 1 0 1 1 0 0 0 0 0 0 0 0 1 3 3 2 2 1 0 0 0 0 0 0 0 0 0 0 0 0 0 0 0 0 0 0
Wind_Speed
5 6 13 13 14 14 15 15 16 16 16 16 16 16 16 15 15 15 15 15 15 15 15 16 16 16 16 16 16 15 15 15 15 16 16 16 16 16 16 16 15 12 16
8 8 14 14 14 14 15 15 15 15 16 16 15 15 15 15 14 14 14 14 15 15 16 16 16 16 16 16 16 15 15 15 15 15 16 15 16 15 15 15 14 11 16
10 8 11 14 14 14 14 14 14 15 15 15 15 14 15 14 14 14 14 14 15 15 16 16 16 16 16 15 15 15 15 15 15 15 14 9 11 14 14 15 15 15 15
10 7 9 14 14 14 14 13 14 14 14 14 14 14 14 14 14 14 14 14 15 15 15 15 15 15 15 14 14 14 14 15 15 14 8 8 9 14 14 14 15 15 15
8 7 10 15 14 14 13 13 13 13 13 13 13 13 13 13 13 14 14 14 14 14 15 15 15 14 14 13 13 13 13 14 14 11 8 7 7 13 14 14 14 15 14
8 6 9 15 14 13 13 13 12 12 12 12 12 12 13 13 13 13 13 13 14 14 14 14 14 13 13 12 12 12 13 14 11 8 7 7 7 12 14 14 14 14 14
7 6 8 14 14 13 13 12 12 12 12 12 11 12 12 12 12 12 12 13 13 13 13 13 13 12 11 11 12 13 13 13 8 7 6 6 7 12 13 13 13 13 13
7 6 7 13 13 13 12 12 11 11 11 11 11 11 11 11 11 11 12 12 12 12 12 12 11 11 10 10 11 12 13 12 9 8 6 6 9 11 13 13 13 13 13
6 5 5 6 8 12 12 11 11 11 11 10 10 10 10 10 10 11 11 11 11 11 11 10 10 10 9 9 11 12 12 12 7 5 6 5 9 11 12 12 12 12 12
5 5 4 4 4 4 6 10 11 10 10 10 10 10 10 10 9 10 9 9 10 10 10 9 9 9 9 9 10 11 12 10 6 5 4 5 10 11 11 11 11 11 11
6 4 4 4 4 4 4 7 8 9 9 8 7 9 7 4 4 5 7 8 9 9 9 8 8 8 8 8 9 10 9 4 5 4 3 7 9 10 11 10 10 10 10
9 6 4 4 4 4 4 3 3 3 3 3 3 4 4 3 2 4 4 7 8 8 7 7 7 7 6 3 6 8 4 5 4 3 3 8 8 9 10 9 9 9 9
9 8 6 5 4 4 2 3 2 2 2 3 3 4 3 3 2 2 1 2 3 4 3 4 4 3 3 3 3 3 4 4 3 3 4 8 8 9 9 9 9 9 9
8 8 6 6 5 4 3 3 3 2 2 2 2 4 3 2 2 1 1 1 1 1 2 2 2 2 3 3 4 4 5 3 3 2 3 8 7 8 8 8 8 9 8
9 8 7 6 6 5 4 3 3 3 3 3 2 3 4 3 2 2 1 1 1 1 2 2 2 2 2 2 3 4 5 4 4 3 3 8 8 7 8 8 8 8 8
10 9 7 7 6 5 4 3 3 3 3 3 3 3 4 3 3 2 2 1 1 1 2 2 2 2 1 2 2 3 4 4 4 4 3 5 8 8 8 8 8 8 8
10 9 9 8 7 6 5 5 3 3 3 3 3 4 4 4 4 3 2 2 2 2 2 2 2 1 1 2 2 3 3 4 4 4 4 3 4 7 8 8 8 8 9
8 9 9 9 8 7 6 5 3 3 4 3 3 3 5 5 5 4 3 3 2 2 2 2 2 1 1 1 1 1 2 2 4 4 4 4 3 3 6 8 8 8 9
10 10 10 8 9 8 7 5 4 3 4 3 3 3 5 6 6 5 4 3 3 2 2 3 2 2 2 2 2 1 1 2 3 4 4 5 5 4 4 6 8 9 10
8 8 9 8 8 7 5 3 2 2 3 3 4 4 6 5 6 5 4 4 4 3 2 2 2 1 2 2 2 1 0 1 2 3 5 4 5 6 5 5 5 6 10
8 8 8 8 7 6 4 4 3 3 3 3 4 5 6 6 7 6 4 4 5 4 4 4 3 2 1 2 2 1 1 1 2 3 3 4 5 6 6 6 5 5 5
9 9 9 9 8 8 5 4 3 3 3 3 3 4 6 7 7 7 6 5 5 4 4 4 3 3 2 2 3 2 1 2 2 3 3 5 6 5 7 7 7 7 6
8 9 8 8 7 7 6 3 2 2 1 2 3 4 5 6 7 7 7 6 6 6 5 5 5 5 3 2 2 3 3 3 2 2 3 4 5 5 6 6 8 8 8
7 6 6 7 7 6 6 6 6 5 5 5 4 4 4 5 6 7 7 7 6 5 6 6 6 4 5 3 2 2 2 3 2 1 2 2 4 5 6 6 7 8 8
5 6 6 6 6 6 7 7 6 4 3 2 2 3 4 4 5 6 6 6 6 5 6 6 6 5 4 4 4 3 2 1 2 2 2 2 2 3 4 5 5 5 7
4 4 5 6 5 6 6 6 6 6 4 4 4 4 3 3 3 5 6 5 6 5 6 6 6 7 5 5 4 3 4 3 3 3 3 3 3 2 3 3 4 5 5
Wind_Direction
149 149 136 127 120 115 111 108 107 107 108 109 110 110 110 110 108 107 107 106 105 104 103 103 103 104 104 103 103 103 103 104 105 105 105 104 104 104 103 103 102 103 107
142 145 138 131 125 119 116 113 111 110 111 111 111 112 111 111 110 110 110 108 107 106 105 105 106 105 106 104 103 102 103 103 103 105 104 104 104 104 105 106 105 108 108
134 137 138 134 129 124 120 117 115 113 113 113 113 113 113 113 114 113 111 109 107 106 107 107 107 107 106 106 104 103 103 102 102 100 97 96 103 105 106 107 107 107 108
134 132 139 138 133 129 125 121 118 116 115 115 115 115 115 115 115 113 111 109 108 108 108 109 109 109 108 108 107 107 106 104 102 99 89 92 101 105 105 106 107 108 109
129 131 147 141 137 133 129 125 121 119 118 117 117 117 116 115 114 113 112 111 110 109 110 110 110 111 111 111 112 112 109 106 102 94 86 86 93 107 107 106 108 109 109
127 134 150 143 141 137 134 130 127 125 122 120 119 119 119 117 116 116 114 112 112 112 112 112 112 112 111 111 115 116 112 108 100 94 91 92 98 110 109 108 108 110 109
129 136 150 146 144 141 138 135 133 130 127 124 122 121 121 121 120 119 117 115 115 114 113 112 113 112 112 113 116 117 115 114 105 99 95 98 107 112 110 109 111 112 112
133 134 143 148 147 145 143 141 138 136 132 130 127 125 124 124 123 122 120 119 117 116 116 114 113 112 109 112 119 121 122 120 114 108 102 105 116 116 114 112 112 113 114
124 125 129 142 148 150 149 146 144 140 137 135 133 131 129 128 128 126 124 122 120 119 118 116 113 108 107 112 119 124 126 123 115 117 116 111 119 119 119 118 117 117 117
122 125 126 126 128 135 146 151 149 145 142 140 140 138 137 135 132 128 124 126 124 123 122 119 113 107 106 112 122 127 128 122 116 114 115 128 129 128 126 125 123 121 121
147 141 136 133 129 130 143 160 154 152 150 146 148 143 128 102 104 117 132 135 131 128 126 122 114 107 102 112 124 130 122 120 122 120 123 139 138 135 133 131 130 128 127
169 167 151 146 141 141 157 136 122 128 131 119 111 112 101 99 110 120 142 142 138 133 129 122 113 103 91 93 114 119 117 130 130 135 145 147 145 141 138 138 136 134 133
172 173 166 159 152 150 139 130 117 109 111 113 119 120 116 105 96 90 87 110 112 116 98 99 91 86 97 107 109 121 136 138 144 152 159 157 154 151 150 149 146 144 142
171 179 170 165 159 159 148 140 135 136 137 140 141 139 133 130 124 121 114 107 93 92 99 95 99 102 102 119 135 142 151 153 157 156 171 168 165 164 162 159 158 155 152
178 182 176 170 171 167 159 164 160 164 166 163 156 157 157 156 163 159 146 137 131 122 126 119 118 124 119 127 149 156 164 169 170 170 175 179 177 177 175 172 169 167 167
184 183 175 175 177 173 175 176 172 176 174 168 170 178 171 167 169 170 174 172 169 155 148 138 138 138 131 137 152 161 171 174 177 176 182 190 189 189 189 186 184 182 183
186 180 177 180 178 180 184 189 187 181 178 184 184 183 177 179 179 177 182 191 191 162 143 126 121 112 126 135 152 165 166 173 177 183 184 189 199 203 201 200 198 198 196
180 179 182 187 183 188 188 189 188 185 186 195 191 186 189 190 183 176 185 201 188 165 155 149 139 128 127 134 152 175 165 172 185 191 193 197 200 210 214 214 211 211 210
184 181 179 184 184 191 190 185 189 190 195 196 193 195 198 195 187 182 192 196 175 167 172 177 149 149 155 158 165 163 180 193 196 202 208 210 210 213 217 227 225 222 222
186 181 178 186 187 182 175 165 175 190 198 194 199 203 199 195 187 182 188 189 174 169 178 168 154 135 142 151 147 117 227 224 213 217 220 218 219 222 221 226 228 231 232
182 175 179 190 187 173 169 177 184 199 200 198 205 204 198 193 186 183 188 182 180 182 185 172 151 144 139 128 103 52 352 283 232 231 226 225 228 227 224 224 225 226 233
186 183 182 188 185 183 185 179 175 174 192 203 204 203 202 196 188 191 188 188 184 180 177 175 158 148 163 160 143 124 357 318 278 232 220 226 231 227 229 228 224 225 228
187 190 190 184 183 181 169 144 129 123 130 178 201 205 207 200 196 195 193 189 186 184 188 189 176 167 174 188 175 153 163 220 271 282 233 229 227 224 231 231 228 229 228
188 184 177 173 176 172 165 168 172 181 192 201 197 201 200 199 200 199 194 191 189 189 191 194 185 178 167 183 194 199 182 164 172 257 285 247 235 231 233 233 234 230 227
171 173 172 170 173 173 176 182 185 193 198 181 178 187 196 200 201 200 198 196 194 192 196 195 185 187 185 184 182 175 173 163 174 181 249 276 264 242 232 231 233 233 228
150 159 164 170 179 178 181 185 189 192 191 185 190 194 198 204 203 204 201 200 199 198 199 198 194 194 198 192 191 185 176 175 188 186 213 239 256 268 248 235 231 232 229